TimeEDT,TemperatureF,Dew PointF,Humidity,Sea Level PressureIn,VisibilityMPH,Wind Direction,Wind SpeedMPH,Gust SpeedMPH,PrecipitationIn,Events,Conditions,WindDirDegrees,DateUTC
12:14 AM,57.2,53.6,88,29.96,10.0,Calm,Calm,-,N/A,,Clear,0,2013-07-11 04:14:00
12:35 AM,55.4,51.8,88,29.96,10.0,Calm,Calm,-,N/A,,Clear,0,2013-07-11 04:35:00
12:54 AM,53.6,51.8,94,29.96,10.0,WSW,4.6,-,N/A,,Clear,240,2013-07-11 04:54:00
1:15 AM,53.6,51.8,94,29.97,10.0,West,3.5,-,N/A,,Clear,260,2013-07-11 05:15:00
1:34 AM,53.6,51.8,94,29.97,10.0,West,3.5,-,N/A,,Clear,260,2013-07-11 05:34:00
1:54 AM,53.6,51.8,94,29.98,10.0,West,3.5,-,N/A,,Clear,260,2013-07-11 05:54:00
2:15 AM,55.4,51.8,88,29.99,10.0,WNW,5.8,-,N/A,,Clear,300,2013-07-11 06:15:00
2:34 AM,55.4,51.8,88,29.99,10.0,WNW,4.6,-,N/A,,Clear,300,2013-07-11 06:34:00
2:55 AM,55.4,51.8,88,29.99,10.0,NW,3.5,-,N/A,,Clear,310,2013-07-11 06:55:00
3:15 AM,55.4,51.8,88,29.99,10.0,NW,4.6,-,N/A,,Clear,310,2013-07-11 07:15:00
3:34 AM,53.6,50.0,88,30.00,10.0,NW,4.6,-,N/A,,Clear,320,2013-07-11 07:34:00
3:55 AM,53.6,50.0,88,30.01,10.0,Calm,Calm,-,N/A,,Clear,0,2013-07-11 07:55:00
4:15 AM,51.8,48.2,88,30.01,10.0,NNW,4.6,-,N/A,,Clear,340,2013-07-11 08:15:00
4:34 AM,51.8,48.2,88,30.01,10.0,NW,6.9,-,N/A,,Clear,320,2013-07-11 08:34:00
4:55 AM,51.8,48.2,88,30.02,10.0,NW,5.8,-,N/A,,Clear,310,2013-07-11 08:55:00
5:14 AM,51.8,48.2,88,30.03,10.0,WNW,3.5,-,N/A,,Clear,290,2013-07-11 09:14:00
5:34 AM,51.8,48.2,88,30.04,10.0,NW,3.5,-,N/A,,Clear,320,2013-07-11 09:34:00
5:55 AM,51.8,48.2,88,30.04,10.0,WNW,3.5,-,N/A,,Clear,300,2013-07-11 09:55:00
6:14 AM,51.8,48.2,88,30.05,10.0,NW,3.5,-,N/A,,Clear,310,2013-07-11 10:14:00
6:34 AM,51.8,48.2,88,30.05,10.0,NNW,4.6,-,N/A,,Clear,330,2013-07-11 10:34:00
6:54 AM,50.0,48.2,94,30.07,10.0,NNW,5.8,-,N/A,,Clear,330,2013-07-11 10:54:00
7:14 AM,51.8,48.2,88,30.08,10.0,NNW,5.8,-,N/A,,Clear,330,2013-07-11 11:14:00
7:35 AM,51.8,48.2,88,30.08,10.0,NNW,4.6,-,N/A,,Clear,340,2013-07-11 11:35:00
7:54 AM,53.6,51.8,94,30.09,10.0,NNW,3.5,-,N/A,,Clear,340,2013-07-11 11:54:00
8:15 AM,55.4,51.8,88,30.09,10.0,NNW,3.5,-,N/A,,Clear,340,2013-07-11 12:15:00
8:34 AM,57.2,53.6,88,30.10,10.0,Calm,Calm,-,N/A,,Clear,0,2013-07-11 12:34:00
8:54 AM,59.0,53.6,82,30.10,10.0,North,5.8,-,N/A,,Clear,360,2013-07-11 12:54:00
9:15 AM,60.8,53.6,77,30.11,10.0,North,6.9,-,N/A,,Clear,350,2013-07-11 13:15:00
9:34 AM,62.6,53.6,72,30.11,10.0,NNE,8.1,-,N/A,,Clear,30,2013-07-11 13:34:00
9:54 AM,62.6,51.8,68,30.11,10.0,NNE,5.8,-,N/A,,Clear,20,2013-07-11 13:54:00
10:15 AM,64.4,51.8,64,30.12,10.0,North,10.4,-,N/A,,Clear,10,2013-07-11 14:15:00
10:34 AM,64.4,51.8,64,30.12,10.0,NNE,6.9,-,N/A,,Clear,20,2013-07-11 14:34:00
10:55 AM,64.4,51.8,64,30.12,10.0,North,3.5,-,N/A,,Clear,360,2013-07-11 14:55:00
11:15 AM,66.2,51.8,60,30.12,10.0,North,5.8,-,N/A,,Clear,360,2013-07-11 15:15:00
11:34 AM,66.2,51.8,60,30.13,10.0,NNW,9.2,-,N/A,,Clear,340,2013-07-11 15:34:00
11:55 AM,66.2,51.8,60,30.13,10.0,NW,6.9,-,N/A,,Clear,320,2013-07-11 15:55:00
12:15 PM,68.0,51.8,56,30.13,5.0,NNW,9.2,-,N/A,,Haze,340,2013-07-11 16:15:00
12:34 PM,69.8,50.0,49,30.13,10.0,NNW,9.2,-,N/A,,Clear,340,2013-07-11 16:34:00
12:55 PM,69.8,50.0,49,30.13,10.0,NE,6.9,-,N/A,,Clear,50,2013-07-11 16:55:00
1:15 PM,69.8,46.4,43,30.13,10.0,NNE,4.6,-,N/A,,Clear,20,2013-07-11 17:15:00
1:34 PM,71.6,46.4,41,30.12,10.0,North,10.4,-,N/A,,Clear,350,2013-07-11 17:34:00
1:54 PM,71.6,50.0,46,30.12,10.0,NW,8.1,-,N/A,,Clear,320,2013-07-11 17:54:00
2:14 PM,71.6,46.4,41,30.12,10.0,NNE,6.9,-,N/A,,Clear,30,2013-07-11 18:14:00
2:35 PM,73.4,46.4,38,30.12,10.0,WNW,4.6,-,N/A,,Clear,290,2013-07-11 18:35:00
2:54 PM,73.4,46.4,38,30.11,10.0,WNW,6.9,-,N/A,,Clear,290,2013-07-11 18:54:00
3:15 PM,73.4,44.6,36,30.11,10.0,NW,3.5,-,N/A,,Clear,320,2013-07-11 19:15:00
3:34 PM,73.4,44.6,36,30.12,10.0,NNW,3.5,-,N/A,,Clear,340,2013-07-11 19:34:00
3:55 PM,75.2,44.6,34,30.11,10.0,NW,5.8,-,N/A,,Clear,310,2013-07-11 19:55:00
4:14 PM,75.2,44.6,34,30.11,10.0,WNW,6.9,-,N/A,,Clear,300,2013-07-11 20:14:00
4:34 PM,75.2,44.6,34,30.11,10.0,North,4.6,-,N/A,,Clear,10,2013-07-11 20:34:00
4:55 PM,75.2,44.6,34,30.10,10.0,Calm,Calm,-,N/A,,Clear,0,2013-07-11 20:55:00
5:14 PM,75.2,42.8,31,30.10,10.0,North,3.5,-,N/A,,Clear,10,2013-07-11 21:14:00
5:34 PM,77.0,42.8,29,30.10,10.0,NNE,4.6,-,N/A,,Clear,30,2013-07-11 21:34:00
5:55 PM,75.2,41.0,29,30.10,10.0,NNW,6.9,-,N/A,,Clear,330,2013-07-11 21:55:00
6:15 PM,77.0,39.2,26,30.10,10.0,West,4.6,-,N/A,,Clear,280,2013-07-11 22:15:00
6:34 PM,75.2,37.4,25,30.10,10.0,NW,3.5,-,N/A,,Clear,310,2013-07-11 22:34:00
6:55 PM,75.2,37.4,25,30.10,10.0,NW,3.5,-,N/A,,Clear,320,2013-07-11 22:55:00
7:14 PM,75.2,37.4,25,30.10,10.0,NW,3.5,-,N/A,,Clear,310,2013-07-11 23:14:00
7:34 PM,75.2,39.2,27,30.10,10.0,Calm,Calm,-,N/A,,Clear,0,2013-07-11 23:34:00
7:55 PM,75.2,41.0,29,30.10,10.0,NW,3.5,-,N/A,,Clear,320,2013-07-11 23:55:00
8:15 PM,73.4,42.8,33,30.10,10.0,NW,3.5,-,N/A,,Clear,320,2013-07-12 00:15:00
8:34 PM,71.6,44.6,38,30.09,10.0,NNW,3.5,-,N/A,,Clear,330,2013-07-12 00:34:00
8:55 PM,69.8,51.8,53,30.09,10.0,Calm,Calm,-,N/A,,Clear,0,2013-07-12 00:55:00
9:15 PM,66.2,53.6,64,30.09,10.0,Calm,Calm,-,N/A,,Clear,0,2013-07-12 01:15:00
9:35 PM,64.4,51.8,64,30.09,10.0,SSW,3.5,-,N/A,,Clear,200,2013-07-12 01:35:00
9:55 PM,62.6,53.6,72,30.10,10.0,Calm,Calm,-,N/A,,Clear,0,2013-07-12 01:55:00
10:15 PM,60.8,51.8,72,30.10,10.0,SSW,3.5,-,N/A,,Clear,200,2013-07-12 02:15:00
10:34 PM,60.8,53.6,77,30.10,10.0,SW,4.6,-,N/A,,Clear,220,2013-07-12 02:34:00
10:54 PM,57.2,53.6,88,30.11,10.0,SW,5.8,-,N/A,,Clear,220,2013-07-12 02:54:00
11:15 PM,57.2,53.6,88,30.11,10.0,SW,4.6,-,N/A,,Clear,220,2013-07-12 03:15:00
11:34 PM,59.0,55.4,88,30.11,10.0,SW,3.5,-,N/A,,Clear,230,2013-07-12 03:34:00
11:55 PM,57.2,53.6,88,30.11,10.0,SW,5.8,-,N/A,,Clear,220,2013-07-12 03:55:00